Location: Street
(51.1247°N, 2.7429°W)
Time: 15:22:43
(UTC+00:00)

SR - Pass Details

Date: 28 November 2020
Orbit: 575 x 880 km, 66.7° (Epoch: 26 January)

Event Time Altitude Azimuth Distance (km) Brightness Sun altitude
Rises 02:22:59 0° 323° (NW) 3,115 - -49.2°
Reaches altitude 10° 02:25:19 10° 328° (NNW) 2,240 - -48.8°
Maximum altitude 02:30:21 53° 46° (NE) 952 - -48.2°
Drops below altitude 10° 02:35:49 10° 123° (ESE) 2,421 - -47.4°
Sets 02:38:24 0° 128° (SE) 3,389 - -47.1°
